DW6494 Weather Reports


Display with metric or nautical units.
time (UTC)temp
F
wind
direction
speed
MPH
gust
MPH
rain 1hr
in
rain 24hr
in
rain mn
in
humidity
%
barometer
mb
20260903145529 70 360 0.0 0.0 0.00 0.00 0.00 26 1020.0
20260903145031 70 183 5.0 7.0 0.00 0.00 0.00 25 1020.0
20260903144531 69 360 0.0 0.0 0.00 0.00 0.00 24 1020.0
20260903144029 69 75 1.0 2.0 0.00 0.00 0.00 26 1020.0
20260903143530 68 355 3.0 4.0 0.00 0.00 0.00 26 1020.0
20260903143029 67 101 3.0 4.0 0.00 0.00 0.00 26 1020.0
20260903142530 67 191 3.0 3.0 0.00 0.00 0.00 26 1020.0
20260903142029 67 1 5.0 7.0 0.00 0.00 0.00 26 1020.0
20260903141530 66 340 1.0 3.0 0.00 0.00 0.00 23 1020.0
20260903141029 65 360 4.0 5.0 0.00 0.00 0.00 27 1020.0
20260903140530 64 352 3.0 4.0 0.00 0.00 0.00 28 1020.0
20260903140029 63 17 1.0 4.0 0.00 0.00 0.00 32 1020.0
20260903135531 63 122 2.0 4.0 0.00 0.00 0.00 31 1020.0
20260903135030 62 360 0.0 0.0 0.00 0.00 0.00 36 1020.0
20260903134531 62 360 0.0 0.0 0.00 0.00 0.00 36 1020.0
20260903134030 62 360 0.0 0.0 0.00 0.00 0.00 33 1020.0
20260903133530 61 71 1.0 3.0 0.00 0.00 0.00 30 1020.0
20260903133032 60 66 1.0 3.0 0.00 0.00 0.00 28 1020.0
20260903132530 59 93 4.0 6.0 0.00 0.00 0.00 27 1020.0
20260903132031 58 23 3.0 4.0 0.00 0.00 0.00 32 1020.0
20260903131530 58 72 3.0 4.0 0.00 0.00 0.00 30 1020.0
20260903131033 56 130 4.0 4.0 0.00 0.00 0.00 33 1020.0
20260903130529 56 101 0.0 0.0 0.00 0.00 0.00 41 1020.0
20260903130031 56 92 2.0 4.0 0.00 0.00 0.00 42 1020.0
20260903125530 56 360 0.0 0.0 0.00 0.00 0.00 42 1020.0
20260903125029 55 54 3.0 4.0 0.00 0.00 0.00 38 1019.0
20260903124529 55 360 0.0 0.0 0.00 0.00 0.00 39 1019.0
20260903124030 55 360 0.0 0.0 0.00 0.00 0.00 43 1019.0
20260903123529 55 360 0.0 0.0 0.00 0.00 0.00 42 1020.0
20260903123029 55 75 0.0 2.0 0.00 0.00 0.00 45 1020.0
20260903122529 55 19 0.0 0.0 0.00 0.00 0.00 45 1019.0
20260903122032 55 102 0.0 1.0 0.00 0.00 0.00 46 1019.0
20260903121531 55 66 3.0 3.0 0.00 0.00 0.00 45 1020.0
20260903121031 55 58 4.0 5.0 0.00 0.00 0.00 46 1019.0
20260903120529 55 74 4.0 4.0 0.00 0.00 0.00 44 1020.0
20260903120030 55 74 4.0 4.0 0.00 0.00 0.00 44 1019.0
20260903115529 56 73 2.0 3.0 0.00 0.00 0.00 43 1019.0
20260903115029 56 76 4.0 4.0 0.00 0.00 0.00 44 1019.0
20260903114530 56 360 0.0 0.0 0.00 0.00 0.00 41 1019.0
20260903114031 57 360 0.0 0.0 0.00 0.00 0.00 42 1019.0
20260903113531 57 360 0.0 0.0 0.00 0.00 0.00 39 1019.0
20260903113033 57 360 0.0 0.0 0.00 0.00 0.00 35 1019.0
20260903112529 58 360 0.0 0.0 0.00 0.00 0.00 38 1019.0
20260903112029 58 360 0.0 0.0 0.00 0.00 0.00 33 1019.0
20260903111529 58 360 0.0 0.0 0.00 0.00 0.00 34 1019.0
20260903111030 59 360 0.0 0.0 0.00 0.00 0.00 32 1019.0
20260903110529 60 360 0.0 0.0 0.00 0.00 0.00 31 1019.0
20260903110029 60 18 4.0 5.0 0.00 0.00 0.00 32 1019.0
20260903105529 60 26 5.0 7.0 0.00 0.00 0.00 29 1019.0
20260903105029 60 28 1.0 4.0 0.00 0.00 0.00 32 1019.0
20260903104529 60 360 0.0 0.0 0.00 0.00 0.00 31 1019.0
20260903104029 61 45 1.0 3.0 0.00 0.00 0.00 28 1019.0
20260903103530 61 29 4.0 4.0 0.00 0.00 0.00 29 1019.0
20260903103030 62 29 2.0 4.0 0.00 0.00 0.00 29 1019.0
20260903102530 62 50 1.0 2.0 0.00 0.00 0.00 27 1019.0
20260903102029 62 34 3.0 5.0 0.00 0.00 0.00 26 1019.0
20260903101529 63 43 2.0 4.0 0.00 0.00 0.00 26 1019.0
20260903100545 63 360 0.0 0.0 0.00 0.00 0.00 27 1019.0
20260903100030 63 84 0.0 2.0 0.00 0.00 0.00 26 1019.0
20260903095530 64 360 0.0 0.0 0.00 0.00 0.00 25 1019.0
20260903095030 64 53 1.0 3.0 0.00 0.00 0.00 25 1019.0
20260903094529 64 6 1.0 4.0 0.00 0.00 0.00 24 1019.0
20260903094030 65 17 5.0 10.0 0.00 0.00 0.00 24 1019.0
20260903093529 65 126 3.0 4.0 0.00 0.00 0.00 23 1019.0
20260903093031 65 350 3.0 4.0 0.00 0.00 0.00 23 1019.0
20260903092529 65 360 0.0 0.0 0.00 0.00 0.00 24 1019.0
20260903092029 65 1 4.0 6.0 0.00 0.00 0.00 24 1019.0
20260903091529 65 8 6.0 12.0 0.00 0.00 0.00 25 1019.0
20260903091031 64 356 5.0 7.0 0.00 0.00 0.00 25 1019.0
20260903090530 64 327 1.0 5.0 0.00 0.00 0.00 25 1019.0
20260903090030 64 349 5.0 7.0 0.00 0.00 0.00 26 1019.0
20260903085530 64 9 0.0 1.0 0.00 0.00 0.00 25 1019.0
20260903085029 65 360 0.0 0.0 0.00 0.00 0.00 27 1019.0
20260903084529 65 355 1.0 4.0 0.00 0.00 0.00 25 1019.0
20260903084029 65 10 0.0 0.0 0.00 0.00 0.00 25 1019.0
20260903083529 66 15 4.0 5.0 0.00 0.00 0.00 24 1019.0
20260903083029 66 55 4.0 7.0 0.00 0.00 0.00 24 1019.0
20260903082040 66 341 0.0 0.0 0.00 0.00 0.00 24 1019.0
20260903081529 67 348 3.0 4.0 0.00 0.00 0.00 24 1019.0
20260903081030 67 54 3.0 4.0 0.00 0.00 0.00 23 1019.0
20260903080530 67 345 4.0 5.0 0.00 0.00 0.00 24 1019.0
20260903080029 68 339 5.0 6.0 0.00 0.00 0.00 26 1019.0
20260903075530 68 355 5.0 6.0 0.00 0.00 0.00 25 1019.0
20260903075030 68 2 5.0 6.0 0.00 0.00 0.00 25 1019.0
20260903074529 68 10 8.0 9.0 0.00 0.00 0.00 26 1019.0
20260903074030 68 280 3.0 6.0 0.00 0.00 0.00 26 1019.0
20260903073530 68 351 5.0 6.0 0.00 0.00 0.00 27 1019.0
20260903073030 68 6 5.0 6.0 0.00 0.00 0.00 30 1019.0
20260903072530 69 8 6.0 7.0 0.00 0.00 0.00 30 1019.0
20260903072029 69 263 4.0 6.0 0.00 0.00 0.00 29 1019.0
20260903071530 69 14 5.0 6.0 0.00 0.00 0.00 30 1019.0
20260903071031 70 11 5.0 5.0 0.00 0.00 0.00 27 1019.0
20260903070529 71 11 0.0 1.0 0.00 0.00 0.00 23 1019.0
20260903070031 71 137 4.0 6.0 0.00 0.00 0.00 19 1019.0
20260903065529 71 144 11.0 14.0 0.00 0.00 0.00 18 1019.0
20260903065031 72 145 6.0 10.0 0.00 0.00 0.00 17 1018.0
20260903064529 72 154 6.0 8.0 0.00 0.00 0.00 16 1018.0
20260903064029 72 156 8.0 10.0 0.00 0.00 0.00 16 1018.0
20260903063528 71 105 1.0 2.0 0.00 0.00 0.00 18 1018.0
20260903063029 71 193 4.0 6.0 0.00 0.00 0.00 19 1018.0
20260903062529 72 166 1.0 4.0 0.00 0.00 0.00 19 1018.0
20260903062030 72 95 4.0 6.0 0.00 0.00 0.00 19 1018.0
20260903061530 72 135 5.0 9.0 0.00 0.00 0.00 19 1018.0
20260903061030 72 153 8.0 10.0 0.00 0.00 0.00 19 1018.0
20260903060529 72 165 9.0 13.0 0.00 0.00 0.00 20 1018.0
20260903060029 72 151 6.0 13.0 0.00 0.00 0.00 20 1018.0
20260903055529 72 180 4.0 5.0 0.00 0.00 0.00 20 1018.0
20260903055031 72 141 6.0 9.0 0.00 0.00 0.00 20 1018.0
20260903054529 72 166 4.0 8.0 0.00 0.00 0.00 20 1018.0
20260903054030 72 178 3.0 7.0 0.00 0.00 0.00 21 1018.0
20260903053529 72 319 0.0 0.0 0.00 0.00 0.00 21 1018.0
20260903053030 72 161 5.0 8.0 0.00 0.00 0.00 21 1018.0
20260903052529 72 77 1.0 1.0 0.00 0.00 0.00 22 1018.0
20260903052029 72 147 3.0 4.0 0.00 0.00 0.00 23 1018.0
20260903051529 73 360 0.0 0.0 0.00 0.00 0.00 23 1018.0
20260903051029 73 349 2.0 4.0 0.00 0.00 0.00 21 1018.0
20260903050529 73 360 0.0 0.0 0.00 0.00 0.00 19 1018.0
20260903050031 73 338 1.0 4.0 0.00 0.00 0.00 19 1018.0
20260903045531 73 351 1.0 4.0 0.00 0.00 0.00 20 1018.0
20260903045029 73 122 5.0 6.0 0.00 0.00 0.00 21 1018.0
20260903044531 74 78 2.0 4.0 0.00 0.00 0.00 22 1018.0
20260903044029 74 126 2.0 5.0 0.00 0.00 0.00 21 1018.0
20260903043530 74 135 3.0 7.0 0.00 0.00 0.00 20 1018.0
20260903043029 74 167 5.0 8.0 0.00 0.00 0.00 20 1018.0
20260903042529 74 128 6.0 9.0 0.00 0.00 0.00 21 1018.0
20260903042029 74 99 4.0 7.0 0.00 0.00 0.00 23 1018.0
20260903041530 74 156 6.0 10.0 0.00 0.00 0.00 20 1018.0
20260903041030 74 144 8.0 12.0 0.00 0.00 0.00 18 1018.0
20260903040530 74 162 9.0 13.0 0.00 0.00 0.00 19 1018.0
20260903040030 74 169 7.0 10.0 0.00 0.00 0.00 20 1018.0
20260903035529 74 181 5.0 7.0 0.00 0.00 0.00 21 1018.0
20260903035029 74 124 5.0 9.0 0.00 0.00 0.00 22 1018.0
20260903034529 74 159 4.0 5.0 0.00 0.00 0.00 22 1018.0
20260903034030 74 105 4.0 6.0 0.00 0.00 0.00 21 1018.0
20260903033530 74 126 4.0 5.0 0.00 0.00 0.00 21 1018.0
20260903033029 74 126 4.0 8.0 0.00 0.00 0.00 21 1018.0
20260903032530 75 141 2.0 4.0 0.00 0.00 0.00 21 1018.0
20260903032029 75 155 1.0 4.0 0.00 0.00 0.00 22 1018.0
20260903031534 75 143 5.0 6.0 0.00 0.00 0.00 22 1018.0
20260903031031 75 150 2.0 4.0 0.00 0.00 0.00 21 1018.0
20260903030530 75 136 6.0 9.0 0.00 0.00 0.00 21 1018.0
20260903030030 76 140 7.0 8.0 0.00 0.00 0.00 21 1018.0
20260903025529 76 129 2.0 4.0 0.00 0.00 0.00 21 1018.0
20260903025029 76 184 4.0 6.0 0.00 0.00 0.00 20 1018.0
20260903024530 76 164 7.0 9.0 0.00 0.00 0.00 19 1017.0
20260903024030 76 44 4.0 5.0 0.00 0.00 0.00 20 1017.0
20260903023530 76 177 5.0 6.0 0.00 0.00 0.00 20 1017.0
20260903023029 76 151 5.0 7.0 0.00 0.00 0.00 20 1017.0
20260903022530 76 166 6.0 10.0 0.00 0.00 0.00 20 1017.0
20260903022029 76 115 1.0 3.0 0.00 0.00 0.00 19 1017.0
20260903021529 77 192 5.0 7.0 0.00 0.00 0.00 17 1017.0
20260903021029 77 163 3.0 5.0 0.00 0.00 0.00 17 1017.0
20260903020530 77 162 2.0 7.0 0.00 0.00 0.00 16 1017.0
20260903020030 77 146 1.0 5.0 0.00 0.00 0.00 15 1017.0
20260903015530 77 96 4.0 6.0 0.00 0.00 0.00 15 1017.0
20260903015029 78 163 3.0 7.0 0.00 0.00 0.00 16 1017.0
20260903014529 78 140 1.0 6.0 0.00 0.00 0.00 16 1017.0
20260903014031 78 137 4.0 7.0 0.00 0.00 0.00 15 1017.0
20260903013529 78 160 2.0 4.0 0.00 0.00 0.00 16 1017.0
20260903013029 78 169 4.0 9.0 0.00 0.00 0.00 16 1017.0
20260903012529 79 360 0.0 0.0 0.00 0.00 0.00 16 1018.0
20260903012030 79 360 0.0 0.0 0.00 0.00 0.00 15 1018.0
20260903011529 79 185 0.0 2.0 0.00 0.00 0.00 15 1018.0
20260903011029 79 155 2.0 4.0 0.00 0.00 0.00 14 1018.0
20260903010529 79 65 1.0 3.0 0.00 0.00 0.00 14 1018.0
20260903010035 79 179 3.0 4.0 0.00 0.00 0.00 13 1018.0
20260903005530 80 17 2.0 3.0 0.00 0.00 0.00 14 1018.0
20260903005029 80 1 2.0 4.0 0.00 0.00 0.00 14 1018.0
20260903004529 80 129 2.0 5.0 0.00 0.00 0.00 14 1018.0
20260903004030 80 169 1.0 4.0 0.00 0.00 0.00 14 1018.0
20260903003529 80 360 0.0 0.0 0.00 0.00 0.00 15 1018.0
20260903003029 80 172 1.0 4.0 0.00 0.00 0.00 15 1018.0
20260903002530 80 144 1.0 4.0 0.00 0.00 0.00 15 1018.0
20260903002029 81 120 2.0 5.0 0.00 0.00 0.00 14 1018.0
20260903001531 81 335 4.0 5.0 0.00 0.00 0.00 14 1018.0
20260903001029 81 3 0.0 0.0 0.00 0.00 0.00 15 1018.0
20260903000529 81 98 4.0 6.0 0.00 0.00 0.00 14 1018.0
20260903000031 82 138 7.0 17.0 0.00 0.00 0.00 15 1018.0
20260902235529 82 163 1.0 4.0 0.00 0.00 0.00 15 1018.0
20260902235029 82 212 3.0 5.0 0.00 0.00 0.00 16 1018.0
20260902234529 81 331 1.0 4.0 0.00 0.00 0.00 17 1018.0
20260902234029 82 130 5.0 12.0 0.00 0.00 0.00 14 1018.0
20260902233529 82 171 2.0 4.0 0.00 0.00 0.00 16 1018.0
20260902233030 82 145 11.0 15.0 0.00 0.00 0.00 15 1018.0
20260902232529 82 103 4.0 9.0 0.00 0.00 0.00 16 1018.0
20260902232029 82 233 0.0 1.0 0.00 0.00 0.00 17 1018.0
20260902231529 82 189 3.0 8.0 0.00 0.00 0.00 17 1018.0
20260902231030 82 102 3.0 5.0 0.00 0.00 0.00 15 1018.0
20260902230529 82 46 4.0 9.0 0.00 0.00 0.00 15 1018.0
20260902230029 82 284 1.0 3.0 0.00 0.00 0.00 17 1018.0
20260902225529 82 213 2.0 7.0 0.00 0.00 0.00 16 1018.0
20260902225030 82 152 4.0 8.0 0.00 0.00 0.00 17 1018.0
20260902224529 82 98 6.0 12.0 0.00 0.00 0.00 19 1018.0
20260902224030 82 152 5.0 13.0 0.00 0.00 0.00 17 1018.0
20260902223529 82 277 3.0 7.0 0.00 0.00 0.00 15 1018.0
20260902223030 83 342 1.0 3.0 0.00 0.00 0.00 17 1018.0
20260902222530 83 229 3.0 6.0 0.00 0.00 0.00 16 1018.0
20260902222030 83 142 1.0 6.0 0.00 0.00 0.00 18 1018.0
20260902221530 82 183 4.0 12.0 0.00 0.00 0.00 17 1018.0
20260902221029 82 110 5.0 8.0 0.00 0.00 0.00 16 1018.0
20260902220529 82 163 2.0 7.0 0.00 0.00 0.00 18 1018.0
20260902220030 82 46 5.0 11.0 0.00 0.00 0.00 18 1018.0
20260902215530 82 121 5.0 11.0 0.00 0.00 0.00 19 1018.0
20260902215030 82 109 5.0 9.0 0.00 0.00 0.00 20 1018.0
20260902214531 82 211 3.0 5.0 0.00 0.00 0.00 21 1018.0
20260902214029 82 274 2.0 6.0 0.00 0.00 0.00 20 1018.0
20260902213530 82 300 3.0 4.0 0.00 0.00 0.00 20 1018.0
20260902213030 82 101 4.0 13.0 0.00 0.00 0.00 20 1018.0
20260902212528 82 106 8.0 12.0 0.00 0.00 0.00 20 1019.0
20260902212029 82 226 4.0 7.0 0.00 0.00 0.00 23 1019.0
20260902211529 82 146 4.0 6.0 0.00 0.00 0.00 23 1019.0
20260902211029 82 100 5.0 10.0 0.00 0.00 0.00 21 1019.0
20260902210529 83 146 6.0 10.0 0.00 0.00 0.00 22 1019.0
20260902210029 82 87 4.0 6.0 0.00 0.00 0.00 22 1019.0
20260902205530 82 130 5.0 10.0 0.00 0.00 0.00 21 1019.0
20260902205029 82 136 4.0 8.0 0.00 0.00 0.00 23 1019.0
20260902204529 82 138 9.0 13.0 0.00 0.00 0.00 21 1019.0
20260902204031 81 176 4.0 9.0 0.00 0.00 0.00 22 1019.0
20260902203530 81 151 4.0 8.0 0.00 0.00 0.00 23 1019.0
20260902203029 81 100 4.0 9.0 0.00 0.00 0.00 24 1019.0
20260902202529 81 144 8.0 16.0 0.00 0.00 0.00 22 1019.0
20260902202031 81 147 10.0 20.0 0.00 0.00 0.00 24 1019.0
20260902201529 81 152 13.0 26.0 0.00 0.00 0.00 22 1019.0
20260902201030 81 164 8.0 11.0 0.00 0.00 0.00 23 1019.0
20260902200529 80 91 5.0 9.0 0.00 0.00 0.00 23 1019.0
20260902200030 80 147 10.0 19.0 0.00 0.00 0.00 22 1019.0
20260902195531 80 129 11.0 21.0 0.00 0.00 0.00 22 1019.0
20260902195029 80 160 12.0 18.0 0.00 0.00 0.00 23 1019.0
20260902194529 80 152 14.0 28.0 0.00 0.00 0.00 27 1019.0
20260902194029 80 141 16.0 26.0 0.00 0.00 0.00 24 1019.0
20260902193529 80 145 13.0 24.0 0.00 0.00 0.00 23 1019.0
20260902193029 80 127 4.0 11.0 0.00 0.00 0.00 27 1020.0
20260902192529 80 147 7.0 17.0 0.00 0.00 0.00 28 1020.0
20260902192031 79 125 5.0 13.0 0.00 0.00 0.00 29 1020.0
20260902191530 79 144 8.0 14.0 0.00 0.00 0.00 28 1020.0
20260902191032 79 115 5.0 10.0 0.00 0.00 0.00 29 1020.0
20260902190529 79 154 8.0 19.0 0.00 0.00 0.00 29 1020.0
20260902190033 79 160 7.0 15.0 0.00 0.00 0.00 28 1020.0
20260902185530 79 131 9.0 14.0 0.00 0.00 0.00 28 1020.0
20260902185029 79 154 11.0 20.0 0.00 0.00 0.00 27 1020.0
20260902184531 79 177 9.0 16.0 0.00 0.00 0.00 29 1020.0
20260902184033 79 154 9.0 15.0 0.00 0.00 0.00 29 1020.0
20260902183530 79 157 6.0 10.0 0.00 0.00 0.00 32 1020.0
20260902183029 78 140 11.0 18.0 0.00 0.00 0.00 33 1020.0
20260902182530 78 102 8.0 13.0 0.00 0.00 0.00 32 1020.0
20260902182029 78 144 13.0 25.0 0.00 0.00 0.00 33 1020.0
20260902181529 79 84 6.0 9.0 0.00 0.00 0.00 32 1020.0
20260902181029 79 163 5.0 17.0 0.00 0.00 0.00 34 1020.0
20260902180529 78 166 9.0 21.0 0.00 0.00 0.00 34 1020.0
20260902180030 78 149 7.0 13.0 0.00 0.00 0.00 34 1020.0
20260902175529 78 115 9.0 14.0 0.00 0.00 0.00 34 1020.0
20260902175029 78 165 6.0 9.0 0.00 0.00 0.00 34 1020.0
20260902174530 78 360 4.0 8.0 0.00 0.00 0.00 37 1020.0
20260902174029 77 148 10.0 17.0 0.00 0.00 0.00 36 1020.0
20260902173529 77 140 9.0 17.0 0.00 0.00 0.00 34 1020.0
20260902173029 77 93 4.0 8.0 0.00 0.00 0.00 35 1020.0
20260902172530 77 129 8.0 16.0 0.00 0.00 0.00 39 1020.0
20260902172031 76 167 12.0 25.0 0.00 0.00 0.00 37 1020.0
20260902171529 76 184 7.0 16.0 0.00 0.00 0.00 39 1020.0
20260902171029 77 144 10.0 24.0 0.00 0.00 0.00 40 1020.0
20260902170530 76 129 9.0 16.0 0.00 0.00 0.00 38 1020.0
20260902170029 76 114 9.0 16.0 0.00 0.00 0.00 41 1020.0
20260902165531 75 127 9.0 18.0 0.00 0.00 0.00 42 1020.0
20260902165029 74 82 3.0 8.0 0.00 0.00 0.00 43 1020.0
20260902164529 74 129 8.0 10.0 0.00 0.00 0.00 42 1020.0
20260902164029 73 165 6.0 13.0 0.00 0.00 0.00 44 1020.0
20260902163529 74 37 2.0 7.0 0.00 0.00 0.00 44 1020.0
20260902163029 73 136 6.0 9.0 0.00 0.00 0.00 44 1020.0
20260902162529 73 156 13.0 18.0 0.00 0.00 0.00 43 1020.0
20260902162030 73 143 9.0 17.0 0.00 0.00 0.00 43 1020.0
20260902161529 72 130 9.0 12.0 0.00 0.00 0.00 44 1020.0
20260902161030 72 125 4.0 9.0 0.00 0.00 0.00 45 1020.0
20260902160529 73 53 5.0 9.0 0.00 0.00 0.00 44 1020.0
20260902160030 73 149 9.0 14.0 0.00 0.00 0.00 44 1020.0
20260902155529 72 149 10.0 11.0 0.00 0.00 0.00 42 1020.0
20260902155030 72 171 7.0 10.0 0.00 0.00 0.00 44 1020.0
20260902154530 72 152 9.0 13.0 0.00 0.00 0.00 44 1021.0
20260902154029 71 148 9.0 15.0 0.00 0.00 0.00 44 1021.0
20260902153529 72 130 9.0 15.0 0.00 0.00 0.00 44 1020.0
20260902153029 72 169 9.0 14.0 0.00 0.00 0.00 43 1020.0
20260902152532 72 155 9.0 15.0 0.00 0.00 0.00 45 1020.0
20260902152029 72 150 9.0 19.0 0.00 0.00 0.00 45 1020.0
20260902151530 72 158 6.0 12.0 0.00 0.00 0.00 45 1020.0
20260902151030 72 148 9.0 14.0 0.00 0.00 0.00 45 1020.0
20260902150530 72 158 11.0 16.0 0.00 0.00 0.00 44 1020.0
20260902150032 72 141 4.0 7.0 0.00 0.00 0.00 45 1020.0